User: anonymous   Login
Location: Iesi
(43.5167°N, 13.2333°E)
Time: 11:03:55
(UTC+00:00)
Language:

Meteor 2-4 Rocket - Orbit

View from above orbital plane
View from above orbital plane
View from above satellite
View from above satellite

Ground track
Ground track

The orbit data is extracted from the following two-line orbital elements,

1 11289U 79021B   20304.79145089 +.00000015 +00000-0 +14386-5 0  9995
2 11289 081.2502 042.5480 0075191 339.4654 020.3499 14.11611670144331
Epoch (UTC): 30 October 2020 18:59:41
Eccentricity: 0.0075191
inclination: 81.2502°
perigee height: 799 km
apogee height: 908 km
right ascension of ascending node: 42.5480°
argument of perigee: 339.4654°
revolutions per day: 14.11611670
mean anomaly at epoch: 20.3499°
orbit number at epoch: 14433

The dashed part of the orbit path shows where the satellite is in the earth's shadow,  

DLR